Regional Weather Roundup
Issued by NWS

Home | Current Version | Previous Version | Graphics & Text | Print | Product List | Glossary Off
Versions: 1 2 3 4 5 6 7 8 9 10 11 12 13 14 15 16 17 18 19 20 21 22 23 24 25 26 27 28 29 30 31 32 33 34 35 36 37 38 39 40 41 42 43 44 45 46 47 48 49

000
ASUS43 KDMX 211107
RWRIA

WEATHER ROUNDUP FOR IOWA
NATIONAL WEATHER SERVICE DES MOINES IA
500 AM CST FRI NOV 21 2014

NOTE: "FAIR" INDICATES FEW OR NO CLOUDS BELOW 12,000 FEET WITH NO
SIGNIFICANT WEATHER AND/OR OBSTRUCTIONS TO VISIBILITY.

* - THESE STATIONS ARE NOT NWS STATIONS...THUS NOT UNDER NWS
QUALITY CONTROL.  THEY ALSO DO NOT REPORT WEATHER SUCH
AS PRECIPITATION OR FOG.

IAZ001>003-012>014-020>022-031>034-043>046-211200-
   NORTHWEST IOWA

CITY           SKY/WX    TMP DP  RH WIND       PRES   REMARKS
CARROLL *      PTCLDY    10   7  85 SE8       30.24F WCI  -1
CHEROKEE *     CLEAR     12   9  85 S5        30.20S WCI   4
DENISON *      CLEAR     18  12  79 S12       30.20F WCI   5
LE MARS *      CLEAR     16  12  86 S8        30.18F WCI   5
ORANGE CITY *  CLEAR     16  12  86 S8        30.15F WCI   5
SHELDON *      CLEAR     12   7  79 SE10      30.15F WCI  -1
SIOUX CITY     PTCLDY    16  11  80 SE9       30.20F WCI   4
SPENCER        PTCLDY    13   8  81 S14       30.19F WCI  -2
STORM LAKE *   CLEAR     12   9  85 S13       30.20S WCI  -3
$$

IAZ055>058-069>071-079>083-090>094-211200-
   SOUTHWEST IOWA

CITY           SKY/WX    TMP DP  RH WIND       PRES   REMARKS
ATLANTIC *     CLEAR     19  12  73 E5        30.24F WCI  13
AUDUBON *      CLEAR     16   9  73 CALM      30.23F
CLARINDA *     CLEAR     18  12  79 CALM      30.27F
COUNCIL BLFS * CLEAR     18  14  86 SE9       30.20F WCI   6
CRESTON *      CLEAR     16  10  79 SE9       30.26F WCI   4
HARLAN  *      CLEAR     16  12  86 CALM      30.26F
LAMONI         PTCLDY    16  10  77 SE6       30.27F WCI   7
RED OAK *      CLEAR     19  14  79 SE3       30.24F
SHENANDOAH *   CLEAR     19  14  79 E8        30.25F WCI   9
$$

IAZ047>049-059>061-072>074-084-211200-
   CENTRAL IOWA

CITY           SKY/WX    TMP DP  RH WIND       PRES   REMARKS
AMES           PTCLDY     6   2  83 CALM      30.30F
ANKENY *       CLEAR     12   7  79 CALM      30.32S
CHARITON *     MOCLDY    14   9  79 SE7       30.30S WCI   4
DES MOINES     PTCLDY    16   9  74 SE7       30.31S WCI   6
GRINNELL*      PTCLDY     9   5  85 E5        30.31F WCI   0
KNOXVILLE *    CLEAR     14   7  73 SE7       30.30S WCI   4
MARSHALLTOWN   PTCLDY     4   1  88 SE6       30.31F WCI  -7
PELLA *        PTCLDY    12   9  85 SE5       30.34R WCI   4
PERRY *          N/A     10   9  92 SE7       30.28F WCI   0
$$

IAZ004>006-015-016-023>025-035-036-211200-
   NORTH CENTRAL IOWA

CITY           SKY/WX    TMP DP  RH WIND       PRES   REMARKS
ALGONA *       CLEAR     10   7  85 S12       30.23F WCI  -4
CLARION *      CLEAR      7   1  78 SE10      30.26F WCI  -8
ESTHERVILLE    MOCLDY     6   2  83 S10       30.19F WCI  -9
FORT DODGE *   PTCLDY    10   7  85 S5        30.26F WCI   2
MASON CITY       N/A      1  -2  87 S8        30.28S WCI -13
FOREST CITY *  CLEAR      5   3  92 SE6       30.25F WCI  -6
IOWA FALLS *     N/A      3   0  85 SE7       30.30S WCI  -9
$$

IAZ007>011-017>019-026>030-037>042-050>054-066-211200-
   NORTHEAST IOWA

CITY           SKY/WX    TMP DP  RH WIND       PRES   REMARKS
CEDAR RAPIDS   CLEAR      5   3  91 E6        30.34S WCI  -6
CHARLES CITY * CLEAR      3   0  85 SE6       30.29F WCI  -8
CLINTON *      PTCLDY     3   0  85 CALM      30.41S
DECORAH *      MOCLDY     5   1  85 S5        30.29F WCI  -4
DUBUQUE        PTCLDY     2  -1  88 CALM      30.35R
MONTICELLO *   CLEAR      1  -2  85 CALM      30.36S
OELWEIN *      CLEAR      3   0  85 SE8       30.32S WCI -10
WATERLOO       PTCLDY    -1  -5  82 SW3       30.33R
$$

IAZ064-065-067-068-078-211200-
   EAST CENTRAL IOWA

CITY           SKY/WX    TMP DP  RH WIND       PRES   REMARKS
DAVENPORT      PTCLDY     9   3  77 E6        30.39R WCI  -1
IOWA CITY      PTCLDY     9   6  88 CALM      30.39R
MT. PLEASANT * PTCLDY    10   7  85 E5        30.37S WCI   2
MUSCATINE *    CLEAR      7   3  85 CALM      30.40R
QUAD CITIES    MOCLDY     5   1  83 E6        30.39S WCI  -6
$$

IAZ062-063-075>077-085>089-095>099-211200-
   SOUTHEAST IOWA

CITY           SKY/WX    TMP DP  RH WIND       PRES   REMARKS
BURLINGTON     PTCLDY    13   9  84 E3        30.37S
FAIRFIELD *    CLEAR     10   5  79 E9        30.35F WCI  -2
FORT MADISON * CLEAR     16  12  86 E6        30.36F WCI   7
KEOKUK *       CLEAR     16  10  79 E10       30.36R WCI   3
OSKALOOSA *      N/A     10   7  85 SE5       30.33S WCI   2
CENTERVILLE *  CLEAR     12   9  85 E6        30.32S WCI   3
OTTUMWA        PTCLDY    12   6  77 SE5       30.33S WCI   4
WASHINGTON *   CLEAR     12   9  85 SE3       30.36F
$$

ABBREVIATIONS USED IN REMARKS
   TC - TEMPERATURES IN CELSIUS
  WCI - WIND CHILL INDEX
   HX - HEAT INDEX
  VSB - VISIBILITY
$$




USA.gov is the U.S. government's official web portal to all federal, state and local government web resources and services.